N5CSC Weather Reports


Display with metric or nautical units.
time (UTC)temp
F
wind
direction
speed
MPH
gust
MPH
rain 1hr
in
rain 24hr
in
rain mn
in
humidity
%
barometer
mb
20260904051525 83 123 0.0 4.0 0.00 0.00 0.00 69 1011.0
20260904050037 83 180 0.0 4.0 0.00 0.00 0.00 68 1010.9
20260904044526 83 157 1.0 11.0 0.00 0.00 0.00 67 1010.8
20260904043020 83 159 1.0 6.0 0.00 0.00 0.00 66 1010.7
20260904041521 84 173 0.0 5.0 0.00 0.00 0.00 65 1010.6
20260904040035 84 162 0.0 6.0 0.00 0.00 0.00 63 1010.8
20260904034518 85 163 1.0 9.0 0.00 0.00 0.00 62 1010.7
20260904033017 85 109 2.0 9.0 0.00 0.00 0.00 60 1010.6
20260904031521 86 155 0.0 8.0 0.00 0.00 0.00 57 1010.3
20260904030016 86 128 0.0 8.0 0.00 0.00 0.00 55 1010.2
20260904024516 87 154 1.0 5.0 0.00 0.00 0.00 54 1009.8
20260904023131 86 155 1.0 7.0 0.00 0.00 0.00 54 1009.6
20260904021526 86 107 0.0 5.0 0.00 0.00 0.00 55 1009.2
20260904020012 86 125 0.0 0.0 0.00 0.00 0.00 55 1009.1
20260904014511 86 117 0.0 0.0 0.00 0.00 0.00 54 1008.9
20260904013011 86 113 0.0 4.0 0.00 0.00 0.00 53 1008.7
20260904011510 86 111 0.0 8.0 0.00 0.00 0.00 53 1008.5
20260904010010 87 109 2.0 10.0 0.00 0.00 0.00 52 1008.4
20260904004510 88 107 5.0 9.0 0.00 0.00 0.00 50 1008.3
20260904003020 89 95 2.0 9.0 0.00 0.00 0.00 48 1008.1
20260904001611 91 114 6.0 13.0 0.00 0.00 0.00 45 1007.9
20260904000008 94 90 5.0 16.0 0.00 0.00 0.00 39 1007.6
20260903234507 96 82 2.0 10.0 0.00 0.00 0.00 36 1007.4
20260903233006 99 75 8.0 14.0 0.00 0.00 0.00 31 1007.1
20260903231507 102 109 0.0 4.0 0.00 0.00 0.00 26 1006.9
20260903230005 102 106 0.0 4.0 0.00 0.00 0.00 27 1006.8
20260903224503 102 146 0.0 5.0 0.00 0.00 0.00 27 1006.8
20260903223001 102 150 0.0 4.0 0.00 0.00 0.00 28 1006.8
20260903221601 102 109 1.0 8.0 0.00 0.00 0.00 27 1006.9
20260903220101 102 56 0.0 5.0 0.00 0.00 0.00 28 1007.0
20260903214558 101 156 0.0 3.0 0.00 0.00 0.00 29 1007.1
20260903213109 101 102 0.0 8.0 0.00 0.00 0.00 29 1007.2
20260903211554 102 213 0.0 7.0 0.00 0.00 0.00 29 1007.3
20260903210052 102 66 0.0 2.0 0.00 0.00 0.00 29 1007.6
20260903204550 101 355 0.0 5.0 0.00 0.00 0.00 31 1007.8
20260903203053 101 171 0.0 5.0 0.00 0.00 0.00 31 1008.1
20260903201546 101 54 0.0 6.0 0.00 0.00 0.00 32 1008.3
20260903200043 101 138 0.0 4.0 0.00 0.00 0.00 34 1008.3
20260903194540 100 177 1.0 10.0 0.00 0.00 0.00 36 1008.5
20260903193037 100 130 0.0 3.0 0.00 0.00 0.00 36 1008.8
20260903191540 99 144 2.0 10.0 0.00 0.00 0.00 37 1009.0
20260903190032 98 175 0.0 2.0 0.00 0.00 0.00 40 1009.3
20260903184530 99 161 1.0 6.0 0.00 0.00 0.00 40 1009.6
20260903183030 97 195 0.0 7.0 0.00 0.00 0.00 42 1009.9
20260903181523 97 157 1.0 6.0 0.00 0.00 0.00 42 1010.0
20260903180031 96 179 0.0 10.0 0.00 0.00 0.00 45 1010.3
20260903174518 96 92 0.0 5.0 0.00 0.00 0.00 46 1010.6
20260903173013 94 133 0.0 6.0 0.00 0.00 0.00 49 1010.8
20260903171510 94 180 1.0 7.0 0.00 0.00 0.00 51 1011.2
20260903170012 93 169 1.0 6.0 0.00 0.00 0.00 53 1011.3
20260903164504 92 202 0.0 5.0 0.00 0.00 0.00 57 1011.4
20260903163002 91 171 1.0 9.0 0.00 0.00 0.00 59 1011.5
20260903161559 90 182 0.0 6.0 0.00 0.00 0.00 60 1011.7
20260903160057 89 194 2.0 8.0 0.00 0.00 0.00 61 1011.6
20260903154553 88 183 2.0 8.0 0.00 0.00 0.00 63 1011.6
20260903153051 87 173 2.0 8.0 0.00 0.00 0.00 66 1011.5
20260903151548 85 200 3.0 9.0 0.00 0.00 0.00 69 1011.6
20260903150046 85 180 0.0 6.0 0.00 0.00 0.00 71 1011.7
20260903144549 85 165 1.0 8.0 0.00 0.00 0.00 72 1011.7
20260903143046 84 177 2.0 12.0 0.00 0.00 0.00 73 1011.6
20260903141542 83 146 2.0 6.0 0.00 0.00 0.00 74 1011.7
20260903140042 83 173 1.0 10.0 0.00 0.00 0.00 75 1011.9
20260903134541 82 188 2.0 8.0 0.00 0.00 0.00 75 1011.9
20260903133048 82 186 0.0 9.0 0.00 0.00 0.00 75 1011.9
20260903131539 82 190 0.0 5.0 0.00 0.00 0.00 76 1011.9
20260903130038 82 229 0.0 3.0 0.00 0.00 0.00 76 1011.8
20260903124537 81 196 0.0 3.0 0.00 0.00 0.00 76 1011.7
20260903123036 81 178 0.0 5.0 0.00 0.00 0.00 76 1011.7
20260903121548 81 198 0.0 5.0 0.00 0.00 0.00 76 1011.6
20260903120047 81 177 1.0 8.0 0.00 0.00 0.00 76 1011.3
20260903114538 81 185 1.0 7.0 0.00 0.00 0.00 76 1011.3
20260903113035 81 166 0.0 8.0 0.00 0.00 0.00 76 1011.3
20260903111537 81 175 0.0 6.0 0.00 0.00 0.00 77 1011.3
20260903110033 81 176 2.0 7.0 0.00 0.00 0.00 77 1011.2
20260903104532 81 175 0.0 7.0 0.00 0.00 0.00 77 1011.2
20260903103031 81 169 1.0 6.0 0.00 0.00 0.00 77 1011.2
20260903101531 81 165 1.0 6.0 0.00 0.00 0.00 77 1011.2
20260903100031 81 158 0.0 4.0 0.00 0.00 0.00 77 1011.2
20260903094530 81 184 1.0 6.0 0.00 0.00 0.00 77 1011.2
20260903093031 81 175 0.0 5.0 0.00 0.00 0.00 77 1011.1
20260903091529 81 184 0.0 4.0 0.00 0.00 0.00 77 1011.1
20260903090029 81 179 0.0 10.0 0.00 0.00 0.00 77 1011.1
20260903084528 81 175 0.0 4.0 0.00 0.00 0.00 77 1011.1
20260903083026 81 171 0.0 3.0 0.00 0.00 0.00 77 1011.1
20260903081527 81 183 0.0 2.0 0.00 0.00 0.00 77 1011.2
20260903080025 81 173 0.0 0.0 0.00 0.00 0.00 77 1011.2
20260903074524 81 194 0.0 4.0 0.00 0.00 0.00 76 1011.2
20260903073024 81 181 0.0 7.0 0.00 0.00 0.00 75 1011.1
20260903071525 82 177 0.0 6.0 0.00 0.00 0.00 73 1011.0
20260903070019 82 178 1.0 9.0 0.00 0.00 0.00 72 1011.0
20260903064517 82 180 1.0 7.0 0.00 0.00 0.00 72 1011.2
20260903063019 82 148 0.0 1.0 0.00 0.00 0.00 71 1011.5
20260903061521 83 176 0.0 5.0 0.00 0.00 0.00 70 1011.5
20260903060013 83 175 0.0 4.0 0.00 0.00 0.00 69 1011.5
20260903054513 83 160 0.0 4.0 0.00 0.00 0.00 68 1011.4
20260903053008 84 159 0.0 6.0 0.00 0.00 0.00 66 1011.3